Temp_Advection
nan nan nan nan nan nan nan nan nan nan nan nan nan nan nan nan nan nan nan nan nan nan nan nan nan nan nan nan nan nan nan nan nan
nan 0 0 0 0 -0 -0 -0 0 0 0 0 0 0 0 0 0 0 0 0 -0 0 -0 -0 -0 -0 -0 -0 -0 -0 -0 -0 nan
nan 0 -0 -0 -0 -0 -0 -0 -0 -0 -0 -0 -0 -0 0 0 0 0 0 -0 -0 -0 0 0 -0 -0 -0 -0 -0 -0 -0 -0 nan
nan 0 0 0 -0 -0 -0 -0 -0 -0 -0 -0 -0 -0 -0 -0 -0 -0 -0 -0 -0 0 0 -0 -0 -0 -0 -0 -0 -0 -0 -0 nan
nan 0 0 0 0 -0 0 -0 -0 -0 -0 -0 -0 0 0 0 -0 -0 -0 -0 0 0 0 0 -0 -0 -0 -0 -0 -0 -0 -0 nan
nan 0 0 0 0 -0 -0 0 -0 -0 -0 -0 -0 0 0 -0 -0 -0 -0 -0 -0 0 -0 0 0 0 0 -0 -0 -0 -0 -0 nan
nan 0 0 0 0 0 -0 0 0 -0 -0 -0 -0 0 -0 -0 -0 -0 -1 -0 -0 -0 0 0 0 0 0 -0 -0 -0 -0 -0 nan
nan 0 0 0 0 0 0 -0 0 0 0 -0 -0 -0 -0 -0 -0 -0 -0 -0 -0 0 0 0 -0 -0 -0 -0 -0 -0 -0 -0 nan
nan 0 0 0 0 0 0 -0 -0 0 0 -0 -0 -0 -0 -0 -0 -0 -0 -0 -0 0 0 -0 -0 -0 -0 -0 -0 -0 -0 0 nan
nan -0 -0 0 0 0 0 0 0 0 0 -0 -0 -0 -0 -0 -0 -0 -0 -0 -0 -0 0 0 0 0 0 0 -0 0 0 0 nan
nan -0 -0 -0 0 0 0 0 0 0 -0 0 -0 -0 -0 -0 -0 -0 -0 -0 -0 -0 -0 -0 0 0 0 0 0 -0 -0 -0 nan
nan 0 0 -0 -0 0 0 0 0 0 0 -0 -0 -0 -0 -0 -0 -0 -0 -0 -0 -0 -0 -0 -0 -0 -0 -0 0 -0 -0 -0 nan
nan 0 0 0 -0 0 0 0 0 0 0 0 0 -0 -0 -0 -0 0 0 -0 -0 -0 -0 -0 -0 -0 -0 -0 -0 -0 -0 -0 nan
nan 0 0 0 -0 0 0 0 0 0 0 0 0 0 0 0 -0 -0 -0 -0 -0 -0 -0 -0 -0 -0 -0 -0 -0 -0 -0 -0 nan
nan 0 0 0 0 -0 0 0 0 0 0 0 0 0 0 0 0 0 -0 -0 -0 -0 -0 -0 -0 -0 -0 -0 -0 -0 -0 -0 nan
nan 0 0 0 0 -0 0 0 0 0 0 0 0 0 0 0 0 0 0 0 -0 -0 -0 -0 -0 -0 -0 -0 -0 -0 -0 0 nan
nan 0 0 0 0 0 0 0 0 0 0 0 -0 -0 -0 0 0 0 0 0 0 -0 -0 -0 -0 -0 -0 -0 -0 -0 -0 0 nan
nan 0 0 0 0 0 0 0 0 0 0 0 0 -0 0 0 0 0 0 0 0 -0 -0 -0 -0 -0 -0 -1 -0 -0 -0 -0 nan
nan 0 0 0 0 0 0 0 0 0 0 0 0 0 0 0 0 0 0 0 0 -0 -0 0 -0 -0 -0 -0 -1 -1 -1 -0 nan
nan nan nan nan nan nan nan nan nan nan nan nan nan nan nan nan nan nan nan nan nan nan nan nan nan nan nan nan nan nan nan nan nan
Wind_Speed
8 8 8 7 7 7 7 8 9 8 9 10 10 9 8 8 8 9 6 4 6 4 1 3 4 4 5 6 6 5 4 6 6
9 9 8 8 8 8 8 9 9 9 10 11 10 8 7 6 6 6 4 3 3 3 2 2 2 4 6 6 6 6 6 8 10
10 9 9 9 9 9 9 9 9 9 11 10 9 7 6 4 4 3 2 1 7 9 8 9 5 4 5 7 6 4 5 7 9
11 10 10 10 10 10 9 9 8 9 10 9 8 7 7 6 6 5 6 11 9 10 15 10 8 9 8 6 5 5 10 10 10
12 11 11 10 9 9 8 8 8 9 9 8 7 7 7 6 6 6 6 7 11 11 9 10 14 13 11 9 8 8 8 9 11
13 12 11 10 9 8 8 7 8 7 8 8 8 7 8 8 7 7 6 9 9 9 9 8 7 8 5 6 2 2 6 10 13
12 11 9 9 8 7 7 7 7 7 7 7 8 7 7 8 8 8 9 10 9 9 7 6 3 2 1 1 6 8 10 11 12
12 10 9 8 8 7 7 7 6 7 6 6 7 6 6 7 7 8 8 9 9 9 9 9 8 6 5 6 7 8 9 11 12
12 10 9 8 7 6 6 6 6 6 7 6 6 6 6 6 7 8 7 7 9 9 9 9 9 9 9 9 9 10 11 11 12
11 10 8 7 6 6 6 6 6 6 6 6 6 6 5 6 7 7 8 7 7 7 7 7 8 9 9 10 11 12 13 14 15
10 8 7 6 6 5 6 6 6 6 6 6 6 5 6 6 6 7 7 6 5 6 6 7 7 8 10 11 12 13 14 16 16
11 9 7 6 5 5 5 6 6 6 6 5 6 6 6 6 5 6 5 5 5 5 6 7 7 9 11 11 13 15 16 17 18
11 9 8 6 5 5 5 6 6 6 6 5 6 7 7 6 5 4 4 5 5 5 5 7 9 11 12 13 15 16 16 17 17
10 9 7 6 6 5 6 6 6 6 6 6 7 7 6 6 4 4 3 4 4 5 6 9 12 13 15 16 18 18 18 18 19
11 9 7 6 6 5 5 6 6 6 8 7 7 6 6 5 3 1 2 2 3 5 8 11 14 16 18 19 20 19 19 20 20
11 9 7 6 6 5 6 6 6 7 8 8 7 7 6 5 3 2 2 1 4 7 11 15 17 19 20 21 21 21 20 20 20
11 9 6 6 5 5 5 6 6 6 9 7 7 5 7 8 6 6 5 5 5 8 13 17 20 21 22 23 23 23 23 24 22
11 9 7 6 5 5 6 6 6 6 7 7 5 4 4 6 8 9 9 9 9 12 15 18 21 22 23 24 25 24 24 24 22
11 10 7 6 5 4 5 5 5 6 5 5 4 4 4 3 3 7 9 11 13 14 18 20 22 23 24 25 25 25 25 25 24
12 9 8 6 5 5 6 5 6 5 5 4 4 4 3 3 5 6 6 9 14 18 20 22 24 24 26 25 27 28 28 29 29
Wind_Direction
145 138 131 123 115 113 112 114 118 129 129 133 132 132 131 136 154 160 159 177 89 94 151 198 227 254 289 298 304 314 333 294 293
141 135 130 123 117 114 113 114 119 126 126 126 130 131 130 131 138 164 192 248 290 302 22 265 258 290 297 304 301 290 286 282 281
142 136 128 122 117 115 113 117 124 124 123 123 124 126 129 133 142 158 186 35 54 59 50 59 26 355 2 41 34 12 341 322 304
143 136 130 127 125 119 118 120 123 119 122 121 122 121 121 118 114 115 111 94 69 64 65 60 31 38 55 102 53 356 347 336 329
146 141 136 133 128 124 122 121 120 119 119 121 115 110 108 108 101 110 115 76 76 78 79 69 56 56 55 56 53 46 27 11 2
150 146 140 137 134 132 133 127 120 118 120 119 112 104 101 97 95 102 105 89 75 76 75 92 91 93 99 83 43 1 337 328 333
154 148 144 141 136 133 131 132 127 123 118 120 116 108 95 89 88 92 87 77 74 71 69 85 80 117 136 320 331 320 325 331 336
157 153 152 148 143 141 137 135 133 130 122 118 119 114 101 91 84 88 90 92 74 66 59 57 53 49 27 -0 358 359 1 1 0
162 159 156 152 149 146 143 142 143 134 128 123 119 115 105 94 87 86 86 86 79 71 63 55 49 42 35 22 10 5 1 356 351
168 164 159 158 156 151 149 148 144 141 131 126 122 118 110 101 92 90 91 84 80 68 51 43 39 31 23 14 4 357 350 346 345
173 171 166 163 159 156 152 150 147 149 137 128 126 125 118 110 99 97 91 81 68 55 50 41 34 22 13 5 357 348 342 339 338
178 176 169 163 166 162 158 157 153 152 145 134 129 129 128 121 110 103 87 74 68 58 55 37 24 9 359 351 344 338 334 331 328
183 176 170 166 166 168 165 162 159 156 152 141 137 134 131 124 116 101 92 80 76 59 40 16 -0 353 350 344 340 338 333 331 328
185 182 172 170 165 171 170 169 161 162 161 149 144 141 137 133 118 109 86 83 64 32 8 353 347 345 344 341 340 338 336 332 329
187 184 176 175 167 173 181 176 169 169 167 159 155 154 156 151 137 133 100 62 15 355 346 342 341 340 338 336 336 334 332 329 329
188 188 182 183 180 175 185 179 169 170 174 174 168 172 181 193 209 226 227 288 326 337 340 337 334 333 333 333 332 331 326 325 327
186 186 186 183 185 173 187 188 184 180 184 188 192 198 217 220 229 237 250 265 293 322 332 331 329 327 327 327 327 325 321 317 317
186 189 183 192 191 179 189 192 194 199 197 206 211 200 221 210 232 235 256 267 280 306 320 323 322 323 324 322 321 321 317 313 315
188 190 184 198 195 185 196 188 197 200 213 206 226 243 244 215 231 247 257 265 282 297 312 317 321 323 322 322 320 318 315 310 310
188 192 187 194 192 188 198 190 193 193 202 224 242 251 257 271 268 269 260 272 285 298 311 319 321 322 321 318 314 314 310 305 303
Height
1523 1525 1525 1526 1527 1527 1527 1528 1529 1529 1530 1532 1533 1534 1536 1537 1539 1540 1541 1542 1542 1542 1542 1541 1541 1541 1542 1542 1542 1542 1542 1541 1541
1523 1525 1526 1526 1527 1528 1528 1529 1530 1530 1531 1532 1534 1535 1537 1538 1539 1540 1541 1542 1542 1542 1541 1540 1541 1541 1541 1542 1541 1540 1540 1540 1539
1524 1525 1526 1527 1528 1528 1529 1529 1530 1531 1532 1534 1535 1536 1537 1538 1539 1540 1541 1542 1542 1542 1541 1540 1541 1541 1541 1541 1541 1540 1540 1539 1538
1524 1526 1527 1528 1529 1530 1530 1531 1531 1532 1534 1535 1536 1536 1537 1538 1539 1540 1542 1543 1543 1542 1542 1543 1542 1541 1541 1542 1542 1541 1540 1539 1537
1524 1526 1528 1529 1530 1531 1531 1532 1533 1534 1535 1536 1536 1537 1538 1539 1540 1541 1542 1543 1543 1544 1544 1544 1543 1543 1543 1543 1542 1542 1541 1539 1537
1525 1526 1528 1529 1531 1532 1532 1533 1534 1535 1536 1537 1537 1538 1539 1540 1541 1541 1542 1543 1544 1544 1544 1544 1544 1543 1543 1543 1542 1541 1540 1539 1537
1525 1527 1529 1530 1532 1533 1534 1534 1535 1536 1537 1538 1538 1539 1540 1541 1541 1542 1543 1544 1544 1544 1544 1543 1543 1543 1543 1543 1542 1541 1540 1538 1536
1526 1527 1529 1530 1532 1533 1534 1535 1536 1537 1538 1539 1539 1540 1541 1541 1542 1542 1543 1544 1545 1544 1544 1544 1544 1544 1543 1543 1542 1541 1540 1538 1536
1526 1528 1529 1531 1532 1533 1535 1536 1536 1538 1539 1539 1540 1541 1541 1542 1542 1543 1544 1544 1545 1545 1545 1545 1544 1544 1543 1543 1542 1541 1539 1538 1536
1526 1528 1530 1532 1533 1534 1535 1536 1537 1538 1539 1540 1541 1542 1542 1542 1543 1543 1544 1545 1545 1545 1545 1545 1545 1544 1543 1543 1542 1540 1539 1537 1535
1525 1528 1529 1532 1533 1534 1535 1536 1537 1538 1539 1540 1541 1542 1543 1543 1544 1544 1544 1545 1545 1545 1545 1545 1545 1544 1543 1542 1541 1540 1538 1536 1534
1525 1527 1528 1530 1533 1534 1535 1536 1537 1538 1539 1540 1541 1542 1543 1544 1544 1545 1545 1545 1545 1545 1545 1545 1544 1544 1543 1541 1540 1538 1536 1534 1532
1525 1526 1528 1529 1532 1534 1535 1536 1537 1538 1539 1540 1541 1542 1543 1544 1545 1545 1545 1545 1545 1546 1545 1545 1544 1543 1542 1540 1538 1536 1534 1532 1530
1524 1526 1527 1529 1531 1533 1535 1536 1537 1538 1539 1540 1541 1543 1544 1544 1545 1546 1546 1545 1545 1545 1544 1544 1543 1542 1540 1539 1536 1534 1532 1530 1527
1523 1525 1527 1528 1529 1532 1534 1535 1537 1538 1539 1540 1541 1543 1544 1545 1545 1545 1545 1545 1545 1544 1543 1543 1542 1540 1539 1537 1534 1532 1530 1527 1524
1522 1525 1526 1528 1529 1530 1534 1535 1536 1538 1539 1540 1542 1543 1544 1544 1545 1545 1545 1544 1544 1543 1542 1541 1539 1538 1536 1534 1532 1529 1527 1524 1521
1520 1523 1525 1527 1529 1529 1532 1535 1536 1537 1539 1540 1541 1543 1545 1543 1543 1545 1544 1544 1543 1541 1540 1539 1537 1535 1533 1531 1529 1526 1523 1521 1518
1518 1521 1522 1526 1528 1528 1531 1533 1535 1537 1538 1539 1540 1540 1541 1541 1542 1542 1544 1543 1541 1540 1538 1536 1534 1533 1530 1528 1525 1522 1520 1517 1515
1516 1519 1520 1524 1526 1527 1530 1530 1533 1535 1538 1539 1539 1539 1540 1540 1541 1541 1541 1542 1541 1538 1537 1535 1532 1529 1527 1524 1521 1518 1515 1513 1510
1515 1518 1519 1522 1524 1525 1528 1529 1531 1532 1534 1536 1538 1538 1538 1538 1539 1539 1539 1540 1539 1537 1535 1532 1530 1527 1523 1520 1516 1513 1510 1507 1504